Regional Weather Roundup
Issued by NWS Nashville, TN

Home | Current Version | Previous Version | Text Only | Print | Product List | Glossary On
Versions: 1 2 3 4 5 6 7 8 9 10 11 12 13 14 15 16 17 18 19 20 21 22 23 24 25 26 27 28 29 30 31 32 33 34 35 36 37 38 39 40 41 42 43 44 45 46 47 48 49 50
098
ASUS44 KOHX 262210
RWROHX
MIDDLE TENNESSEE HOURLY WEATHER ROUNDUP
NATIONAL WEATHER SERVICE NASHVILLE TN
500 PM CDT THU MAY 26 2016

NOTE: "FAIR" INDICATES FEW OR NO CLOUDS BELOW 12,000 FEET WITH
NO SIGNIFICANT WEATHER AND/OR OBSTRUCTIONS TO VISIBILITY.

* THESE REPORTS ARE NOT UNDER NWS QUALITY CONTROL AND MAY NOT
  REPORT WEATHER SUCH AS PRECIPITATION AND FOG.


TNZ005>011-023>034-057-059-062>066-078-080-262300
...NORTHERN MIDDLE TENNESSEE...

CITY           SKY/WX    TMP DP  RH WIND       PRES   REMARKS
CLARKSVILLE    LGT RAIN  68  65  90 N14       30.09R
CROSSVILLE     MOSUNNY   80  60  50 VRB6      30.12F
DICKSON        CLOUDY    75  73  94 SW3       30.00F
LEBANON        CLOUDY    73  63  71 N9        30.06
NASHVILLE      CLOUDY    73  64  73 NE18G28   30.04R
SMYRNA         MOSUNNY   88  63  43 VRB7      30.03R
SPARTA         MOSUNNY   88  68  51 CALM      30.06S HX  91
$$
TNZ056-058-060-061-075>077-079-093>097-262300
...SOUTHERN MIDDLE TENNESSEE...

CITY           SKY/WX    TMP DP  RH WIND       PRES   REMARKS
COLUMBIA       SUNNY     90  63  40 S10       29.99F HX  90
LEWISBURG      CLOUDY    90  61  37 S9        30.01F HX  90
MCMINNVILLE    MOSUNNY   86  64  48 S3        30.06S
SHELBYVILLE    MOSUNNY   90  63  40 S13       30.03F HX  90
TULLAHOMA      MOSUNNY   86  57  37 S7        30.06F
WINCHESTER     MOSUNNY   90  59  35 S8        30.05F
$$


...KEY TO REMARKS...
VSB - VISIBILITY IN MILES
WCI - WIND CHILL INDEX
HX  - HEAT INDEX





USA.gov is the U.S. government's official web portal to all federal, state and local government web resources and services.